Location: Aalsum
(53.3404°N, 6.0062°E)
Time: 08:42:09
(UTC+00:00)

Cosmos 614 Rocket - Pass Details

Date: 28 January 2023
Orbit: 733 x 762 km, 74.1° (Epoch: 20 March)

Event Time Altitude Azimuth Distance (km) Brightness Sun altitude
Rises 17:36:41 0° 205° (SSW) 3,214 7.8 -12.7°
Reaches altitude 10° 17:39:02 10° 206° (SSW) 2,291 7.0 -13.0°
Maximum altitude 17:44:15 87° 294° (WNW) 768 4.0 -13.8°
Drops below altitude 10° 17:49:29 10° 26° (NNE) 2,294 6.1 -14.5°
Enters shadow 17:50:16 - 26° (NNE) 2,598 6.4 -14.6°
